Time,TemperatureF,DewpointF,PressureIn,WindDirection,WindDirectionDegrees,WindSpeedMPH,WindSpeedGustMPH,Humidity,HourlyPrecipIn,Conditions,Clouds,dailyrainin,SoftwareType,DateUTC
2013-11-14 00:55:00,70.1,57.4,30.15,NE,35,14.0,25.0,64,0.00,,SCT060,0.00,VWS V14.00,2013-11-14 05:55:00,
2013-11-14 01:55:00,70.2,57.0,30.15,ENE,65,9.0,23.0,63,0.00,,SCT060,0.00,VWS V14.00,2013-11-14 06:55:00,
2013-11-14 02:55:00,70.1,56.5,30.14,East,84,5.0,21.0,62,0.00,,FEW045,0.00,VWS V14.00,2013-11-14 07:55:00,
2013-11-14 03:55:00,70.5,57.3,30.14,East,98,6.0,20.0,63,0.00,,SCT049,0.00,VWS V14.00,2013-11-14 08:55:00,
2013-11-14 04:55:00,70.8,57.6,30.14,ENE,59,18.0,19.0,63,0.00,,SCT055,0.00,VWS V14.00,2013-11-14 09:55:00,
2013-11-14 05:55:00,71.0,58.2,30.16,ENE,72,14.0,21.0,64,0.00,,BKN049,0.00,VWS V14.00,2013-11-14 10:55:00,
2013-11-14 06:55:00,71.2,57.5,30.17,NE,38,16.0,23.0,62,0.00,,BKN060,0.00,VWS V14.00,2013-11-14 11:55:00,
2013-11-14 07:55:00,71.6,58.3,30.18,SE,138,4.0,21.0,63,0.00,,BKN060,0.00,VWS V14.00,2013-11-14 12:55:00,
2013-11-14 08:55:00,72.9,55.8,30.20,East,87,7.0,21.0,55,0.00,,BKN250,0.00,VWS V14.00,2013-11-14 13:55:00,
2013-11-14 09:55:00,72.9,59.1,30.21,East,101,7.0,19.0,62,0.00,,BKN250,0.00,VWS V14.00,2013-11-14 14:55:00,
2013-11-14 10:55:00,74.1,58.9,30.20,ENE,70,11.0,21.0,59,0.00,,BKN065,0.00,VWS V14.00,2013-11-14 15:55:00,
2013-11-14 16:00:00,73.1,59.8,30.13,East,90,8.0,22.0,63,0.00,,BKN065,0.00,VWS V14.00,2013-11-14 21:00:00,
2013-11-14 16:55:00,73.0,58.8,30.13,East,95,10.0,17.0,61,0.00,,BKN250,0.00,VWS V14.00,2013-11-14 21:55:00,
2013-11-14 17:55:00,72.7,60.3,30.14,ESE,113,11.0,19.0,65,0.00,,BKN250,0.00,VWS V14.00,2013-11-14 22:55:00,
2013-11-14 18:55:00,72.9,60.0,30.15,ENE,74,0.0,16.0,64,0.00,,BKN250,0.00,VWS V14.00,2013-11-14 23:55:00,
2013-11-14 19:55:00,73.0,58.8,30.15,NE,56,10.0,20.0,61,0.00,,BKN060,0.00,VWS V14.00,2013-11-15 00:55:00,
2013-11-14 20:55:00,73.0,60.1,30.14,East,85,3.0,19.0,64,0.00,,BKN055,0.00,VWS V14.00,2013-11-15 01:55:00,
2013-11-14 21:55:00,73.0,59.7,30.15,ESE,106,9.0,18.0,63,0.00,,SCT060,0.00,VWS V14.00,2013-11-15 02:55:00,
2013-11-14 22:55:00,73.3,61.3,30.13,ENE,64,6.0,19.0,66,0.00,,SCT055,0.00,VWS V14.00,2013-11-15 03:55:00,
2013-11-14 23:56:00,73.4,62.2,30.11,East,80,9.0,20.0,68,0.00,,SCT055,0.00,VWS V14.00,2013-11-15 04:56:00,